Starlink 31238

operational
NORAD ID: 58853 Int'l Des: 2024-019 Owner: SPXS Country: US Constellation: starlink
LEOCIRCULAR

关于 Starlink 31238

正在加载描述...

实时位置

正在加载3D地球...

即将过境

高度历史

Altitude vs Time

uPlot chart will show altitude changes over time

两行轨道根数

1 58853U 24019A 25259.93757227 -.00001644 00000-0 -53037-4 0 9999
2 58853 43.0052 149.7893 0001137 275.2259 84.8463 15.25900694 92511
Epoch: Sep 16, 2025 • Age: 25 hours

当前状态

高度 497.2 km
速度 7.62 km/s
星下点 -34.50°S, 108.76°E
发射日期 Jan 29, 2024
运行时间 1.6 years
类型 internet

技术详情

分类 Payload
质量 730.00 kg
干质量 700.00 kg
总质量 730.00 kg
长度 0.30 m
直径 4.10 m
跨度 29.00 m
形状 Box + pan
制造商 SPXS
平台类型 Starlink V2M
阶段状态 In Orbit
所有者/国家 SPXS/US

大型星座

Loading constellations...